JILIN-01 GAOFEN 2A

Last updated on Sat Dec 14 2019 00:02:03 GMT+0000 (Coordinated Universal Time)

1 44777U 19075A 19347.44243235 .00000467 00000-0 33377-4 0 9996 2 44777 97.5373 51.7090 0012930 153.1279 262.5986 15.09108867 4579
UTC large
Height (km)
Speed (km/s)
/
Latitude / Longitude
Inclination (degrees)
Orbital Period (minutes)
Azimuth
Elevation
Range (km)
Doppler Factor

Next 0 passes for location: London (51.5072 / 0.1276)

Sorry there are no passes over London.